North Pole, Alaska, United States (99705)
Lat: 64.75N, Lon: 147.35W
Wx Zone: AKZ222
Local Info
Past Weather Observations for Thursday, August 18, 2016

NOTE: This archive is for the closest National Weather Service station to North Pole. Information may differ from the station used for current weather conditions.

Click here for Long-term Archive

Time Weather Temperature Dewpoint Humidity Pressure Winds Precip Visibility
23:58
Overcast
54°F / 12°C 50°F / 10°C 88% 30.04 in
(1017 mb)
ENE 3.5 mph
(ENE 6 kph)
- 10SM
22:58
Overcast
55°F / 13°C 50°F / 10°C 82% 30.04 in
(1017 mb)
ENE 1.2 mph
(ENE 2 kph)
- 10SM
21:58
Mostly Cloudy
61°F / 16°C 50°F / 10°C 68% 30.04 in
(1017 mb)
SSW 3.5 mph
(SSW 6 kph)
- 10SM
20:58
Overcast
63°F / 17°C 50°F / 10°C 64% 30.01 in
(1016 mb)
SW 3.5 mph
(SW 6 kph)
- 10SM
19:58
Mostly Cloudy
66°F / 19°C 48°F / 9°C 52% 30.01 in
(1016 mb)
SSW 9.2 mph
(SSW 15 kph)
- 10SM
18:58
Mostly Cloudy
70°F / 21°C 45°F / 7°C 40% 30.01 in
(1016 mb)
SSW 10.4 mph
(SSW 17 kph)
- 10SM
17:58
Overcast
66°F / 19°C 48°F / 9°C 52% 30.01 in
(1016 mb)
SSE 3.5 mph
(SSE 6 kph)
- 10SM
16:58
Overcast
66°F / 19°C 46°F / 8°C 49% 30.01 in
(1016 mb)
SW 6.9 mph
(SW 11 kph)
- 9SM
15:58
Clear
68°F / 20°C 46°F / 8°C 46% 30.01 in
(1016 mb)
SW 10.4 mph
(SW 17 kph)
- 9SM
15:13
Overcast
61°F / 16°C 54°F / 12°C 77% 30.01 in
(1016 mb)
Variable 5.8 mph
(Variable 9 kph)
- 9SM
13:58
Mostly Cloudy
70°F / 21°C 46°F / 8°C 43% 30.04 in
(1017 mb)
SW 12.7 mph
(SW 20 kph)
- 10SM
12:58
Partly Cloudy
70°F / 21°C 45°F / 7°C 40% 30.06 in
(1018 mb)
SW 9.2 mph
(SW 15 kph)
- 10SM
11:58
Partly Cloudy
66°F / 19°C 46°F / 8°C 49% 30.06 in
(1018 mb)
SSW 4.6 mph
(SSW 7 kph)
- 10SM
10:58
Partly Cloudy
64°F / 18°C 46°F / 8°C 52% 30.09 in
(1019 mb)
Variable 3.5 mph
(Variable 6 kph)
- 9SM
09:58
Partly Cloudy
61°F / 16°C 48°F / 9°C 63% 30.09 in
(1019 mb)
Calm - 9SM
08:58
Clear
57°F / 14°C 48°F / 9°C 72% 30.09 in
(1019 mb)
Variable 2.3 mph
(Variable 4 kph)
- 9SM
07:58
Clear
54°F / 12°C 48°F / 9°C 82% 30.12 in
(1020 mb)
E 3.5 mph
(E 6 kph)
- 7SM
06:58
Partly Cloudy
50°F / 10°C 46°F / 8°C 88% 30.12 in
(1020 mb)
ENE 3.5 mph
(ENE 6 kph)
- 8SM
05:58
Partly Cloudy
46°F / 8°C 45°F / 7°C 93% 30.12 in
(1020 mb)
NE 1.2 mph
(NE 2 kph)
- 7SM
04:58
Clear
46°F / 8°C 45°F / 7°C 93% 30.12 in
(1020 mb)
NNE 1.2 mph
(NNE 2 kph)
- 8SM
03:58
Clear
48°F / 9°C 46°F / 8°C 94% 30.12 in
(1020 mb)
E 3.5 mph
(E 6 kph)
- 8SM
02:58
Clear
48°F / 9°C 46°F / 8°C 94% 30.12 in
(1020 mb)
E 4.6 mph
(E 7 kph)
- 9SM
01:58
Clear
50°F / 10°C 48°F / 9°C 94% 30.12 in
(1020 mb)
ENE 3.5 mph
(ENE 6 kph)
- 9SM
00:58
Clear
52°F / 11°C 50°F / 10°C 94% 30.12 in
(1020 mb)
E 5.8 mph
(E 9 kph)
- 10SM
Time Weather Temperature Dewpoint Humidity Pressure Winds Precip Visibility


Weather for websites

WeatherForYou.com, LLC is not responsible for any damages or problems caused by this service. Current weather conditions are obtained from the closest station including government and personal stations which may have varying degrees of accuracy. Weather forecasts are derived from the NOAA NDFD. Like all things, this site belongs to Jesus Christ... He just trusts us to maintain it. If you have any questions or comments email webmaster@weatherforyou.com

Copyright © 2016, WeatherForYou.com LLC. All rights reserved.